DW4879 Weather Reports


time (UTC)temp
F
wind
direction
speed
knots
gust
knots
rain 1hr
in
rain 24hr
in
rain mn
in
humidity
%
barometer
mb
20260906232100 89 326 0.0 2.6 0.00 0.00 0.00 21 1020.2
20260906231502 89 309 1.7 3.5 0.00 0.00 0.00 22 1020.3
20260906231100 89 284 0.9 3.5 0.00 0.00 0.00 22 1020.4
20260906230554 88 132 1.7 3.5 0.00 0.00 0.00 22 1020.3
20260906225553 88 296 0.9 7.0 0.00 0.00 0.00 22 1020.6
20260906225059 89 223 1.7 5.2 0.00 0.00 0.00 22 1020.5
20260906224556 89 332 1.7 5.2 0.00 0.00 0.00 22 1020.6
20260906224041 89 284 2.6 5.2 0.00 0.00 0.00 22 1020.6
20260906223552 89 283 1.7 6.1 0.00 0.00 0.00 21 1020.7
20260906223041 89 291 1.7 6.1 0.00 0.00 0.00 21 1020.7
20260906222549 90 231 1.7 5.2 0.00 0.00 0.00 21 1020.7
20260906222058 90 265 1.7 5.2 0.00 0.00 0.00 21 1020.8
20260906221503 90 192 2.6 5.2 0.00 0.00 0.00 20 1020.9
20260906221056 90 192 0.9 7.0 0.00 0.00 0.00 21 1020.9
20260906220605 90 167 1.7 8.7 0.00 0.00 0.00 21 1021.0
20260906220055 90 200 4.3 8.7 0.00 0.00 0.00 21 1021.1
20260906215550 90 198 0.0 4.3 0.00 0.00 0.00 21 1021.1
20260906215054 89 75 0.0 6.1 0.00 0.00 0.00 22 1021.1
20260906214603 89 57 2.6 6.1 0.00 0.00 0.00 21 1021.2
20260906214007 89 249 1.7 6.1 0.00 0.00 0.00 21 1021.2
20260906213513 89 118 0.9 7.0 0.00 0.00 0.00 21 1021.8
20260906213025 89 216 4.3 7.0 0.00 0.00 0.00 21 1021.4
20260906212529 89 138 1.7 6.1 0.00 0.00 0.00 21 1021.4
20260906212037 90 33 1.7 4.3 0.00 0.00 0.00 21 1021.4
20260906211546 89 213 1.7 4.3 0.00 0.00 0.00 21 1021.6
20260906211054 89 192 1.7 7.0 0.00 0.00 0.00 21 1021.5
20260906210544 88 113 2.6 7.0 0.00 0.00 0.00 22 1021.6
20260906210056 88 225 1.7 6.1 0.00 0.00 0.00 22 1021.6
20260906205600 88 170 0.9 7.0 0.00 0.00 0.00 22 1021.6
20260906205002 89 236 1.7 7.0 0.00 0.00 0.00 21 1021.7
20260906204603 89 80 0.9 7.0 0.00 0.00 0.00 21 1021.7
20260906204105 89 187 3.5 7.0 0.00 0.00 0.00 21 1021.7
20260906203558 89 154 1.7 8.7 0.00 0.00 0.00 21 1021.8
20260906203048 89 160 4.3 9.6 0.00 0.00 0.00 21 1021.9
20260906202556 89 316 1.7 9.6 0.00 0.00 0.00 21 1021.9
20260906202104 89 213 2.6 8.7 0.00 0.00 0.00 21 1022.0
20260906201507 89 116 1.7 6.1 0.00 0.00 0.00 22 1022.0
20260906201104 88 57 1.7 6.1 0.00 0.00 0.00 21 1022.1
20260906200505 88 139 0.9 3.5 0.00 0.00 0.00 22 1022.2
20260906200111 87 37 1.7 4.3 0.00 0.00 0.00 22 1022.2
20260906195507 87 148 1.7 4.3 0.00 0.00 0.00 22 1022.3
20260906195102 86 150 1.7 7.0 0.00 0.00 0.00 23 1022.4
20260906194553 86 157 1.7 7.0 0.00 0.00 0.00 23 1022.5
20260906194101 86 152 0.9 5.2 0.00 0.00 0.00 22 1022.5
20260906193553 86 293 0.9 6.1 0.00 0.00 0.00 21 1022.6
20260906193102 87 167 1.7 7.8 0.00 0.00 0.00 22 1022.6
20260906192504 87 125 2.6 7.8 0.00 0.00 0.00 22 1022.6
20260906192100 86 179 0.9 7.0 0.00 0.00 0.00 22 1022.7
20260906191504 86 163 3.5 7.0 0.00 0.00 0.00 22 1022.7
20260906191059 86 144 3.5 7.0 0.00 0.00 0.00 22 1022.7
20260906190505 85 295 0.0 5.2 0.00 0.00 0.00 23 1022.8
20260906190114 85 183 0.9 7.0 0.00 0.00 0.00 24 1022.9
20260906185550 85 165 3.5 7.0 0.00 0.00 0.00 23 1022.9
20260906185058 85 184 0.9 6.1 0.00 0.00 0.00 23 1022.9
20260906184554 85 186 2.6 6.1 0.00 0.00 0.00 23 1023.0
20260906184101 86 200 1.7 8.7 0.00 0.00 0.00 23 1023.0
20260906183555 86 161 4.3 8.7 0.00 0.00 0.00 23 1023.1
20260906183048 86 250 0.0 6.1 0.00 0.00 0.00 23 1023.1
20260906182550 85 180 2.6 6.1 0.00 0.00 0.00 24 1023.1
20260906182046 85 74 2.6 6.1 0.00 0.00 0.00 22 1023.2
20260906181550 85 166 1.7 4.3 0.00 0.00 0.00 23 1023.2
20260906181059 85 208 1.7 6.1 0.00 0.00 0.00 22 1023.3
20260906180502 86 162 2.6 5.2 0.00 0.00 0.00 21 1023.3
20260906180049 86 194 2.6 5.2 0.00 0.00 0.00 21 1023.3
20260906175542 86 173 3.5 5.2 0.00 0.00 0.00 21 1023.4
20260906175052 86 241 0.9 6.1 0.00 0.00 0.00 20 1023.5
20260906174558 86 235 2.6 6.1 0.00 0.00 0.00 21 1023.5
20260906174001 86 136 4.3 7.8 0.00 0.00 0.00 21 1023.4
20260906173555 85 149 1.7 7.8 0.00 0.00 0.00 22 1023.6
20260906173105 84 162 0.9 7.8 0.00 0.00 0.00 23 1023.7
20260906172558 83 130 3.5 7.8 0.00 0.00 0.00 23 1023.8
20260906172049 83 121 1.7 6.1 0.00 0.00 0.00 25 1023.7
20260906171557 82 81 2.6 7.0 0.00 0.00 0.00 25 1023.7
20260906171055 82 108 1.7 6.1 0.00 0.00 0.00 25 1023.8
20260906170604 82 155 3.5 6.1 0.00 0.00 0.00 26 1023.9
20260906170014 81 134 1.7 7.0 0.00 0.00 0.00 26 1023.9
20260906165601 81 111 3.5 7.0 0.00 0.00 0.00 27 1024.1
20260906165004 80 136 1.7 5.2 0.00 0.00 0.00 28 1024.1
20260906164601 79 67 2.6 5.2 0.00 0.00 0.00 29 1024.0
20260906164005 79 130 1.7 7.8 0.00 0.00 0.00 29 1024.2
20260906163600 78 105 4.3 7.8 0.00 0.00 0.00 30 1024.1
20260906163052 78 115 1.7 8.7 0.00 0.00 0.00 30 1024.0
20260906162600 77 138 2.6 10.4 0.00 0.00 0.00 30 1024.1
20260906162052 77 83 5.2 10.4 0.00 0.00 0.00 30 1024.1
20260906161601 76 89 2.6 8.7 0.00 0.00 0.00 32 1024.1
20260906161052 75 137 3.5 8.7 0.00 0.00 0.00 32 1024.1
20260906160543 75 111 4.3 8.7 0.00 0.00 0.00 33 1024.1
20260906160106 74 88 4.3 7.8 0.00 0.00 0.00 33 1024.1
20260906155558 74 119 5.2 7.8 0.00 0.00 0.00 33 1024.2
20260906155003 74 126 4.3 8.7 0.00 0.00 0.00 33 1024.2
20260906154601 73 115 3.5 8.7 0.00 0.00 0.00 34 1024.3
20260906154004 72 113 5.2 8.7 0.00 0.00 0.00 34 1024.2
20260906153557 72 73 4.3 9.6 0.00 0.00 0.00 34 1024.1
20260906153106 71 116 6.1 11.3 0.00 0.00 0.00 35 1024.1
20260906152507 71 107 6.1 12.2 0.00 0.00 0.00 34 1024.1
20260906152103 70 111 7.0 12.2 0.00 0.00 0.00 35 1024.2
20260906151506 70 122 5.2 8.7 0.00 0.00 0.00 36 1024.3
20260906151103 69 113 5.2 7.8 0.00 0.00 0.00 37 1024.3
20260906150507 69 102 5.2 8.7 0.00 0.00 0.00 38 1024.2
20260906150105 68 59 4.3 8.7 0.00 0.00 0.00 38 1024.2
20260906145555 68 113 3.5 7.8 0.00 0.00 0.00 39 1024.3
20260906145103 67 130 4.3 7.0 0.00 0.00 0.00 39 1024.3
20260906144553 66 150 2.6 7.0 0.00 0.00 0.00 39 1024.2
20260906144042 66 137 3.5 7.0 0.00 0.00 0.00 42 1024.1
20260906143550 65 103 2.6 6.1 0.00 0.00 0.00 42 1024.1
20260906143045 65 126 3.5 7.0 0.00 0.00 0.00 43 1024.0
20260906142551 64 97 2.6 6.1 0.00 0.00 0.00 44 1024.0
20260906142059 64 94 2.6 6.1 0.00 0.00 0.00 44 1024.1
20260906141502 64 111 1.7 5.2 0.00 0.00 0.00 44 1024.1
20260906141057 63 119 1.7 3.5 0.00 0.00 0.00 44 1024.1
20260906140605 62 101 0.9 2.6 0.00 0.00 0.00 45 1024.2
20260906140052 62 145 0.9 2.6 0.00 0.00 0.00 46 1024.2
20260906135600 61 111 0.9 3.5 0.00 0.00 0.00 46 1024.1
20260906135002 61 109 0.9 3.5 0.00 0.00 0.00 47 1024.0
20260906134601 60 87 1.7 2.6 0.00 0.00 0.00 48 1023.9
20260906134001 59 71 0.0 1.7 0.00 0.00 0.00 50 1024.0
20260906133558 58 114 0.0 2.6 0.00 0.00 0.00 51 1024.0
20260906133109 58 107 1.7 3.5 0.00 0.00 0.00 52 1024.0
20260906132559 57 113 1.7 3.5 0.00 0.00 0.00 52 1023.9
20260906132051 57 114 1.7 3.5 0.00 0.00 0.00 53 1024.0
20260906131542 57 128 0.9 1.7 0.00 0.00 0.00 54 1024.0
20260906131050 56 128 0.9 2.6 0.00 0.00 0.00 54 1023.9
20260906130543 56 127 0.9 2.6 0.00 0.00 0.00 53 1023.7
20260906130050 57 125 1.7 2.6 0.00 0.00 0.00 53 1023.6
20260906125542 57 119 1.7 2.6 0.00 0.00 0.00 53 1023.4
20260906125032 57 113 0.9 2.6 0.00 0.00 0.00 53 1023.4
20260906124540 57 126 1.7 3.5 0.00 0.00 0.00 53 1023.3
20260906124049 57 117 1.7 3.5 0.00 0.00 0.00 52 1023.4
20260906123601 57 109 1.7 3.5 0.00 0.00 0.00 52 1023.3
20260906123047 57 117 2.6 5.2 0.00 0.00 0.00 52 1023.3
20260906122555 58 113 2.6 3.5 0.00 0.00 0.00 51 1023.4
20260906122048 58 113 2.6 5.2 0.00 0.00 0.00 50 1023.3
20260906121555 58 121 1.7 5.2 0.00 0.00 0.00 49 1023.3
20260906121048 59 130 2.6 5.2 0.00 0.00 0.00 47 1023.2
20260906120538 59 99 2.6 5.2 0.00 0.00 0.00 46 1023.2
20260906120047 60 115 1.7 3.5 0.00 0.00 0.00 45 1023.2
20260906115539 61 117 1.7 3.5 0.00 0.00 0.00 44 1023.2
20260906115046 61 136 0.9 4.3 0.00 0.00 0.00 43 1023.3
20260906114606 61 126 2.6 7.0 0.00 0.00 0.00 43 1023.3
20260906114102 61 98 3.5 7.0 0.00 0.00 0.00 43 1023.2
20260906113555 61 105 2.6 7.0 0.00 0.00 0.00 43 1023.1
20260906113104 61 105 3.5 7.8 0.00 0.00 0.00 43 1023.1
20260906112556 61 59 4.3 7.8 0.00 0.00 0.00 43 1023.0
20260906112049 61 75 3.5 7.8 0.00 0.00 0.00 44 1023.1
20260906111600 61 88 3.5 8.7 0.00 0.00 0.00 44 1023.1
20260906111049 61 84 4.3 8.7 0.00 0.00 0.00 44 1023.0
20260906110601 60 84 3.5 7.8 0.00 0.00 0.00 45 1023.1
20260906110051 60 80 3.5 7.0 0.00 0.00 0.00 45 1023.0
20260906105541 60 104 2.6 6.1 0.00 0.00 0.00 45 1022.9
20260906105051 60 84 1.7 4.3 0.00 0.00 0.00 45 1022.9
20260906104551 60 88 1.7 3.5 0.00 0.00 0.00 45 1023.0
20260906104049 60 76 1.7 3.5 0.00 0.00 0.00 45 1023.0
20260906103542 61 86 1.7 5.2 0.00 0.00 0.00 45 1023.0
20260906103034 61 101 2.6 5.2 0.00 0.00 0.00 44 1023.0
20260906102539 61 99 2.6 6.1 0.00 0.00 0.00 44 1023.0
20260906102047 61 107 3.5 5.2 0.00 0.00 0.00 44 1022.9
20260906101556 61 76 2.6 5.2 0.00 0.00 0.00 43 1022.9
20260906101100 61 71 2.6 7.0 0.00 0.00 0.00 43 1022.9
20260906100501 62 74 3.5 7.0 0.00 0.00 0.00 42 1022.9
20260906100039 62 74 2.6 6.1 0.00 0.00 0.00 42 1022.8
20260906095543 62 82 3.5 4.3 0.00 0.00 0.00 42 1022.9
20260906095051 62 69 2.6 4.3 0.00 0.00 0.00 41 1023.0
20260906094558 62 77 0.9 2.6 0.00 0.00 0.00 40 1023.0
20260906094000 63 107 1.7 2.6 0.00 0.00 0.00 40 1023.0
20260906093511 63 96 0.9 5.2 0.00 0.00 0.00 39 1023.0
20260906093016 63 108 1.7 5.2 0.00 0.00 0.00 39 1022.9
20260906092523 63 98 2.6 5.2 0.00 0.00 0.00 38 1022.8
20260906092032 63 101 2.6 6.1 0.00 0.00 0.00 38 1022.8
20260906091540 64 85 2.6 6.1 0.00 0.00 0.00 37 1022.7
20260906091047 64 80 2.6 5.2 0.00 0.00 0.00 37 1022.8
20260906090555 64 89 2.6 5.2 0.00 0.00 0.00 37 1022.7
20260906090046 64 86 3.5 6.1 0.00 0.00 0.00 37 1022.7
20260906085554 64 94 3.5 5.2 0.00 0.00 0.00 37 1022.8
20260906085101 64 108 2.6 5.2 0.00 0.00 0.00 37 1022.8
20260906084505 64 87 2.6 5.2 0.00 0.00 0.00 37 1022.8
20260906084104 64 89 2.6 5.2 0.00 0.00 0.00 37 1022.9
20260906083503 64 98 3.5 6.1 0.00 0.00 0.00 36 1022.9
20260906083102 64 90 3.5 7.8 0.00 0.00 0.00 36 1022.9
20260906082505 64 64 3.5 7.0 0.00 0.00 0.00 36 1023.0
20260906082009 65 72 2.6 6.1 0.00 0.00 0.00 35 1023.0
20260906081604 65 61 1.7 3.5 0.00 0.00 0.00 35 1023.0
20260906081007 65 91 0.0 2.6 0.00 0.00 0.00 34 1023.1
20260906080517 65 91 0.0 2.6 0.00 0.00 0.00 34 1023.1
20260906080025 66 87 0.9 2.6 0.00 0.00 0.00 34 1023.1
20260906075529 66 93 0.0 2.6 0.00 0.00 0.00 34 1023.1
20260906075037 66 96 1.7 3.5 0.00 0.00 0.00 34 1023.1
20260906074546 66 101 1.7 3.5 0.00 0.00 0.00 34 1023.1
20260906074053 66 93 1.7 3.5 0.00 0.00 0.00 34 1023.1
20260906073604 66 86 1.7 3.5 0.00 0.00 0.00 34 1023.1
20260906073008 65 77 1.7 2.6 0.00 0.00 0.00 34 1023.0
20260906072600 66 82 0.9 2.6 0.00 0.00 0.00 35 1023.1
20260906072003 66 118 1.7 2.6 0.00 0.00 0.00 35 1023.1
20260906071600 66 127 0.9 1.7 0.00 0.00 0.00 34 1023.1
20260906071051 66 90 0.9 1.7 0.00 0.00 0.00 34 1023.1
20260906070559 66 323 0.0 0.0 0.00 0.00 0.00 34 1023.2
20260906070051 67 323 0.0 1.7 0.00 0.00 0.00 33 1023.2
20260906065543 67 323 0.0 1.7 0.00 0.00 0.00 33 1023.1
20260906065049 67 323 0.0 1.7 0.00 0.00 0.00 33 1023.0
20260906064601 67 323 0.0 1.7 0.00 0.00 0.00 33 1023.0
20260906064104 68 309 0.0 1.7 0.00 0.00 0.00 33 1023.0
20260906063558 68 326 0.9 3.5 0.00 0.00 0.00 33 1023.0
20260906063108 68 342 1.7 3.5 0.00 0.00 0.00 32 1023.1
20260906062555 68 360 1.7 3.5 0.00 0.00 0.00 32 1023.1
20260906062103 68 344 1.7 5.2 0.00 0.00 0.00 32 1023.1
20260906061559 69 5 2.6 6.1 0.00 0.00 0.00 31 1023.1
20260906061104 69 355 2.6 7.0 0.00 0.00 0.00 32 1023.2
20260906060506 69 5 2.6 7.0 0.00 0.00 0.00 31 1023.1
20260906060039 69 16 3.5 7.8 0.00 0.00 0.00 31 1023.1
20260906055544 69 22 4.3 8.7 0.00 0.00 0.00 31 1023.1
20260906055052 69 38 3.5 8.7 0.00 0.00 0.00 31 1023.1
20260906054609 69 16 4.3 8.7 0.00 0.00 0.00 31 1023.1
20260906054050 69 5 4.3 8.7 0.00 0.00 0.00 31 1023.0
20260906053600 69 37 3.5 7.0 0.00 0.00 0.00 31 1023.1
20260906053001 70 360 3.5 7.8 0.00 0.00 0.00 31 1023.0
20260906052509 70 36 4.3 7.8 0.00 0.00 0.00 31 1023.1
20260906052002 70 11 3.5 7.8 0.00 0.00 0.00 31 1023.1
20260906051509 70 15 3.5 7.0 0.00 0.00 0.00 31 1023.1
20260906051002 70 9 2.6 7.0 0.00 0.00 0.00 32 1023.1
20260906050558 70 29 2.6 7.0 0.00 0.00 0.00 32 1023.1
20260906050001 70 10 3.5 5.2 0.00 0.00 0.00 32 1023.1
20260906045600 70 360 2.6 5.2 0.00 0.00 0.00 32 1023.1
20260906045105 70 5 3.5 4.3 0.00 0.00 0.00 32 1023.0
20260906044558 70 28 2.6 4.3 0.00 0.00 0.00 32 1023.0
20260906044048 71 30 2.6 4.3 0.00 0.00 0.00 32 1023.1
20260906043556 71 13 2.6 4.3 0.00 0.00 0.00 31 1023.1
20260906043047 71 18 1.7 3.5 0.00 0.00 0.00 31 1023.1
20260906042555 72 26 1.7 3.5 0.00 0.00 0.00 31 1023.1
20260906042047 73 21 1.7 2.6 0.00 0.00 0.00 31 1023.1
20260906041540 73 349 0.9 3.5 0.00 0.00 0.00 30 1023.0
20260906041047 73 327 1.7 3.5 0.00 0.00 0.00 30 1023.0
20260906040536 73 308 1.7 4.3 0.00 0.00 0.00 30 1022.9
20260906040044 73 313 2.6 4.3 0.00 0.00 0.00 30 1022.9
20260906035555 73 345 1.7 2.6 0.00 0.00 0.00 31 1022.9
20260906035100 74 355 0.9 2.6 0.00 0.00 0.00 30 1022.8
20260906034551 74 5 0.9 1.7 0.00 0.00 0.00 30 1022.8
20260906034058 74 355 0.9 1.7 0.00 0.00 0.00 30 1022.8
20260906033501 75 303 0.9 1.7 0.00 0.00 0.00 30 1022.8
20260906033010 75 303 0.9 2.6 0.00 0.00 0.00 29 1022.8
20260906032503 76 312 0.9 1.7 0.00 0.00 0.00 29 1022.8
20260906032010 76 312 0.0 0.9 0.00 0.00 0.00 29 1022.8
20260906031504 76 312 0.0 2.6 0.00 0.00 0.00 29 1022.7
20260906031057 76 312 0.9 2.6 0.00 0.00 0.00 29 1022.6
20260906030604 77 282 1.7 2.6 0.00 0.00 0.00 28 1022.5
20260906030005 77 256 0.0 1.7 0.00 0.00 0.00 28 1022.4
20260906025511 77 253 0.9 1.7 0.00 0.00 0.00 28 1022.4
20260906025017 77 247 0.9 1.7 0.00 0.00 0.00 28 1022.3
20260906024503 77 247 0.0 1.7 0.00 0.00 0.00 28 1022.3
20260906024009 78 254 0.9 1.7 0.00 0.00 0.00 28 1022.2
20260906023516 78 279 0.0 1.7 0.00 0.00 0.00 27 1022.2
20260906023103 78 279 0.9 1.7 0.00 0.00 0.00 27 1022.1
20260906022501 78 279 0.0 1.7 0.00 0.00 0.00 27 1022.0
20260906022009 78 279 0.0 2.6 0.00 0.00 0.00 27 1022.0
20260906021603 79 286 0.9 2.6 0.00 0.00 0.00 27 1022.0
20260906021004 79 281 0.9 1.7 0.00 0.00 0.00 26 1022.0
20260906020511 79 290 0.9 1.7 0.00 0.00 0.00 26 1022.0
20260906020057 80 290 0.9 1.7 0.00 0.00 0.00 26 1021.9
20260906015545 80 280 0.9 2.6 0.00 0.00 0.00 26 1021.8
20260906015053 80 281 0.9 2.6 0.00 0.00 0.00 26 1021.8
20260906014555 80 288 1.7 3.5 0.00 0.00 0.00 25 1021.8
20260906014053 81 286 0.9 3.5 0.00 0.00 0.00 25 1021.8
20260906013545 81 286 1.7 3.5 0.00 0.00 0.00 25 1021.9
20260906013053 81 311 0.9 6.1 0.00 0.00 0.00 25 1021.9
20260906012601 81 288 1.7 5.2 0.00 0.00 0.00 25 1021.9
20260906012050 82 295 2.6 5.2 0.00 0.00 0.00 25 1021.9
20260906011559 82 304 3.5 5.2 0.00 0.00 0.00 25 1021.9
20260906011003 82 321 2.6 7.8 0.00 0.00 0.00 25 1021.9
20260906010511 82 291 4.3 7.8 0.00 0.00 0.00 25 1021.9
20260906010108 82 296 3.5 7.0 0.00 0.00 0.00 25 1022.0
20260906005509 82 296 1.7 3.5 0.00 0.01 0.00 26 1021.9
20260906005015 82 271 1.7 3.5 0.00 0.01 0.00 26 1022.0
20260906004524 82 295 0.9 3.5 0.00 0.01 0.00 27 1022.0
20260906004031 82 212 0.9 3.5 0.00 0.01 0.00 27 1021.9
20260906003539 83 232 0.9 3.5 0.00 0.01 0.00 26 1022.0
20260906003047 83 224 0.9 3.5 0.00 0.01 0.00 26 1022.0
20260906002555 83 231 1.7 4.3 0.00 0.01 0.00 26 1021.9
20260906002047 83 273 0.9 6.1 0.00 0.01 0.00 26 1022.0
20260906001553 83 290 3.5 6.1 0.00 0.01 0.00 26 1022.0
20260906001102 84 229 0.9 6.1 0.00 0.01 0.00 26 1022.0
20260906000505 84 273 1.7 7.8 0.00 0.01 0.00 25 1022.0
20260906000101 84 195 2.6 7.8 0.00 0.01 0.00 25 1022.0
20260905235503 84 201 4.3 7.0 0.00 0.01 0.00 25 1022.0
20260905235100 84 233 0.9 8.7 0.00 0.01 0.00 26 1022.0
20260905234503 84 330 3.5 8.7 0.00 0.01 0.00 26 1022.1
20260905234103 84 260 1.7 7.0 0.00 0.01 0.00 26 1022.1
20260905233502 84 218 1.7 7.8 0.00 0.01 0.00 25 1022.1
20260905233015 85 273 4.3 7.8 0.00 0.01 0.00 24 1022.1
20260905232521 85 267 1.7 7.0 0.00 0.01 0.00 24 1022.0